�N����,����,����,����,����,�C��,���x,�~����,�S�V����,�ő�u�ԕ���,,,,,
,,,,,,,,,����,����,����,�N��,,
yyyy/mm/dd,hh:mm:ss,(16),16����,m/s,��,%,mm,KW/�u,(16),16����,m/s,Time,,
2018/7/1,1:00:00,2,�k��,4.1,18.3,88.7,0,0,3,���k��,9,29,,
2018/7/1,2:00:00,3,���k��,3.2,17.5,88,0,0,2,�k��,6.7,4,,
2018/7/1,3:00:00,3,���k��,1.7,16.7,89.6,0,0,3,���k��,3.7,9,,
2018/7/1,4:00:00,11,���쐼,1,16.2,92.2,0,0,3,���k��,2.9,10,,
2018/7/1,5:00:00,8,��,0.9,16.2,93.3,0,0.01,8,��,1.6,54,,
2018/7/1,6:00:00,16,�É�,0,16.6,93.1,0,0.04,8,��,0.8,0,,
2018/7/1,7:00:00,5,���쓌,0.7,17.1,89,0,0.09,5,���쓌,1.2,59,,
2018/7/1,8:00:00,3,���k��,1.4,17.8,86,0,0.15,4,��,2.1,54,,
2018/7/1,9:00:00,4,��,1.7,18.1,86.1,0,0.17,2,�k��,2.5,25,,
2018/7/1,10:00:00,5,���쓌,0.6,18.2,87.1,0,0.13,4,��,2.1,0,,
2018/7/1,11:00:00,5,���쓌,1.2,18.3,83.1,0,0.26,5,���쓌,3.1,20,,
2018/7/1,12:00:00,7,��쓌,2.1,17.5,84.8,0,0.31,6,�쓌,3.7,31,,
2018/7/1,13:00:00,7,��쓌,1.4,15.7,85.5,0.5,0.21,6,�쓌,4.4,12,,
2018/7/1,14:00:00,7,��쓌,1.2,15,88.7,0,0.17,7,��쓌,3,27,,
2018/7/1,15:00:00,4,��,0.4,15.7,92,1.5,0.15,5,���쓌,2.5,28,,
2018/7/1,16:00:00,6,�쓌,0.8,15.5,89.2,0,0.12,5,���쓌,2,31,,
2018/7/1,17:00:00,7,��쓌,0.6,16.2,89.2,0,0.14,6,�쓌,2,17,,
2018/7/1,18:00:00,16,�É�,0.1,16.5,89,0,0.09,7,��쓌,1.6,34,,
2018/7/1,19:00:00,4,��,1,16.2,89.2,0,0.02,4,��,1.4,56,,
2018/7/1,20:00:00,5,���쓌,0.8,15,89.8,0,0,5,���쓌,1.6,10,,
2018/7/1,21:00:00,7,��쓌,0.9,14.8,91.1,0,0,8,��,1.9,50,,
2018/7/1,22:00:00,5,���쓌,0.9,13.8,92.1,0,0,7,��쓌,1.8,2,,
2018/7/1,23:00:00,16,�É�,0.1,14.1,93.9,0,0,10,�쐼,1.2,18,,
2018/7/1,0:00:00,13,���k��,0.4,14.5,94.8,0,0,10,�쐼,1.6,13,,
2018/7/2,1:00:00,11,���쐼,0.9,14.6,95.2,0,0,10,�쐼,1.7,53,,
2018/7/2,2:00:00,15,�k�k��,95.4,0,0,,,,,,,,
2018/7/2,3:00:00,13,���k��,0.3,15.4,95.7,0,0,11,���쐼,2.3,16,,
2018/7/2,4:00:00,6,�쓌,0.3,15.3,95.7,0.5,0,12,��,1.6,24,,
2018/7/2,5:00:00,16,�É�,0.1,15.3,94.9,0,0.02,5,���쓌,1.4,16,,
2018/7/2,6:00:00,2,�k��,1,15.9,93.6,0,0.07,2,�k��,1.8,51,,
2018/7/2,7:00:00,5,���쓌,1.3,16.4,93.1,0,0.12,2,�k��,2.3,5,,
2018/7/2,8:00:00,6,�쓌,1.3,16,89,0,0.24,4,��,2.5,25,,
2018/7/2,9:00:00,4,��,0.7,17.5,83.6,0,0.44,5,���쓌,2.5,26,,
2018/7/2,10:00:00,7,��쓌,2,19.7,65.8,0,0.81,8,��,3.2,51,,
2018/7/2,11:00:00,7,��쓌,1.5,22.7,65,0,0.96,8,��,3.6,16,,
2018/7/2,12:00:00,6,�쓌,2.5,18.5,69,0,0.58,7,��쓌,4.4,21,,
2018/7/2,13:00:00,8,��,2.3,19.3,79,0,0.46,8,��,3.9,16,,
2018/7/2,14:00:00,7,��쓌,2,20.8,71.4,0,0.57,7,��쓌,3.4,1,,
2018/7/2,15:00:00,6,�쓌,1.4,17.9,75.8,0,0.37,5,���쓌,3.3,7,,
2018/7/2,16:00:00,8,��,0.6,17.9,90,1.5,0.06,10,�쐼,2.9,43,,
2018/7/2,17:00:00,4,��,2.1,16.1,89.3,4,0.03,4,��,3.3,59,,
2018/7/2,18:00:00,2,�k��,0.5,15.7,93.5,2,0.06,5,���쓌,3.6,5,,
2018/7/2,19:00:00,14,�k��,0.5,16.2,93.8,0,0.01,14,�k��,1.1,55,,
2018/7/2,20:00:00,12,��,0.9,17.2,95.4,3,0,12,��,1.9,9,,
2018/7/2,21:00:00,16,�É�,0,17.2,95.6,0.5,0,7,��쓌,2,36,,
2018/7/2,22:00:00,5,���쓌,0.8,17.4,95.5,0,0,1,�k�k��,2.2,34,,
2018/7/2,23:00:00,7,��쓌,1.1,17.6,96,0,0,8,��,2.1,0,,
2018/7/2,0:00:00,16,�É�,0,17.8,96.1,0,0,7,��쓌,2.7,25,,
2018/7/3,1:00:00,1,�k�k��,0.5,17.8,96.1,0,0,2,�k��,1.3,52,,
2018/7/3,2:00:00,1,�k�k��,0.4,17.5,96,0,0,3,���k��,1.8,34,,
2018/7/3,3:00:00,5,���쓌,1.2,16.1,94.6,0,0,5,���쓌,2.2,15,,
2018/7/3,4:00:00,4,��,0.7,15.5,94.8,0,0,3,���k��,1.9,34,,
2018/7/3,5:00:00,16,�k,0.9,16.2,96.3,0,0.02,1,�k�k��,1.5,53,,
2018/7/3,6:00:00,4,��,0.5,17.8,97,0,0.07,4,��,1.5,59,,
2018/7/3,7:00:00,16,�k,1,18.1,95.7,0,0.12,4,��,3.4,27,,
2018/7/3,8:00:00,2,�k��,2.9,19,92.9,0.5,0.17,2,�k��,4.5,55,,
2018/7/3,9:00:00,1,�k�k��,2,19.9,90.9,0,0.22,2,�k��,4,56,,
2018/7/3,10:00:00,4,��,2.5,19.7,89.2,0,0.19,3,���k��,4.7,19,,
2018/7/3,11:00:00,4,��,2.2,20.5,89.3,0,0.22,4,��,4,8,,
2018/7/3,12:00:00,10,�쐼,1.1,21.2,81.1,0,0.34,3,���k��,2.9,22,,
2018/7/3,13:00:00,9,��쐼,1.2,22.1,74,0,0.48,10,�쐼,2.7,30,,
2018/7/3,14:00:00,7,��쓌,2.5,20.8,72.1,0,0.31,6,�쓌,3.6,59,,
2018/7/3,15:00:00,7,��쓌,2.1,20.5,83.5,0,0.22,7,��쓌,3.5,48,,
2018/7/3,16:00:00,7,��쓌,1.4,18.5,89.8,0,0.11,6,�쓌,4.6,3,,
2018/7/3,17:00:00,9,��쐼,1.2,18.3,92.5,0.5,0.07,5,���쓌,3.2,10,,
2018/7/3,18:00:00,10,�쐼,1.6,18.9,93.7,0,0.05,10,�쐼,3.3,47,,
2018/7/3,19:00:00,16,�É�,0.2,18.6,93.5,0,0.01,9,��쐼,2.2,11,,
2018/7/3,20:00:00,6,�쓌,0.8,18.3,92.7,0,0,7,��쓌,1.8,45,,
2018/7/3,21:00:00,6,�쓌,1.6,17.6,94.2,1,0,6,�쓌,2.8,59,,
2018/7/3,22:00:00,16,�É�,0.1,17.5,95.3,0,0,5,���쓌,2.7,19,,
2018/7/3,23:00:00,5,���쓌,0.5,17.6,95.9,0,0,10,�쐼,1.4,31,,
2018/7/3,0:00:00,4,��,1.2,17.1,95.2,0,0,2,�k��,3.4,34,,
2018/7/4,1:00:00,3,���k��,2.1,16.7,95.9,0,0,4,��,3.1,38,,
2018/7/4,2:00:00,4,��,3,16.1,95.8,0,0,4,��,4.8,56,,
2018/7/4,3:00:00,3,���k��,1.8,15.6,96.1,1,0,3,���k��,5.1,4,,
2018/7/4,4:00:00,3,���k��,1.7,15.5,96.5,0.5,0,3,���k��,4.2,18,,
2018/7/4,5:00:00,2,�k��,1.3,15.5,96.7,0,0.01,3,���k��,3.7,22,,
2018/7/4,6:00:00,3,���k��,2.1,15.8,97,0,0.02,4,��,2.9,56,,
2018/7/4,7:00:00,2,�k��,0.7,15.4,96.4,0.5,0.05,3,���k��,3.4,2,,
2018/7/4,8:00:00,1,�k�k��,1.7,15.8,95.7,0,0.1,16,�k,3.2,53,,
2018/7/4,9:00:00,1,�k�k��,2,17.2,91.4,0,0.2,2,�k��,3.3,51,,
2018/7/4,10:00:00,2,�k��,1.9,17,88.7,0,0.16,2,�k��,3.3,58,,
2018/7/4,11:00:00,4,��,3.7,16.2,87.3,0,0.21,3,���k��,5.8,55,,
2018/7/4,12:00:00,3,���k��,3.6,16.1,89.6,0,0.26,2,�k��,5.9,43,,
2018/7/4,13:00:00,4,��,3.2,15.8,87.8,0,0.17,3,���k��,6.4,21,,
2018/7/4,14:00:00,4,��,3.4,15.2,87,0,0.13,4,��,5,54,,
2018/7/4,15:00:00,4,��,2,14.8,89.8,0,0.11,4,��,5.1,12,,
2018/7/4,16:00:00,4,��,0.3,14.9,90,0,0.08,4,��,3.2,10,,
2018/7/4,17:00:00,7,��쓌,0.5,15,87.7,0,0.04,5,���쓌,1.3,1,,
2018/7/4,18:00:00,5,���쓌,0.6,14.5,89.8,0,0.02,9,��쐼,1.4,13,,
2018/7/4,19:00:00,4,��,0.4,14.6,92.9,0,0.01,12,��,1.5,30,,
2018/7/4,20:00:00,4,��,1.5,14.3,93.4,1.5,0,3,���k��,2.2,59,,
2018/7/4,21:00:00,3,���k��,2,13.5,93.6,2,0,3,���k��,5.3,32,,
2018/7/4,22:00:00,3,���k��,1.7,13.5,95.3,1.5,0,2,�k��,4.1,33,,
2018/7/4,23:00:00,4,��,2.7,12.5,94.8,2.5,0,4,��,4.8,34,,
2018/7/4,0:00:00,2,�k��,2.2,12.6,96,1,0,2,�k��,4.7,37,,
2018/7/5,1:00:00,6,�쓌,0.8,13,96.8,3,0,1,�k�k��,2.8,11,,
2018/7/5,2:00:00,2,�k��,1.5,12.6,96.3,1,0,2,�k��,2.8,53,,
2018/7/5,3:00:00,4,��,0.7,12.4,95.9,6.5,0,13,���k��,2.9,34,,
2018/7/5,4:00:00,15,�k�k��,1.8,11.4,94.3,2,0,14,�k��,4.5,48,,
2018/7/5,5:00:00,14,�k��,2.5,11.2,94.7,3.5,0.01,14,�k��,6,34,,
2018/7/5,6:00:00,15,�k�k��,1.8,10.8,94.7,1,0.02,15,�k�k��,5,38,,
2018/7/5,7:00:00,15,�k�k��,1.9,10.9,94.4,1.5,0.05,14,�k��,5.5,46,,
2018/7/5,8:00:00,15,�k�k��,2.3,10.9,94.2,1.5,0.09,15,�k�k��,4.9,24,,
2018/7/5,9:00:00,15,�k�k��,3.2,10.7,92.9,1.5,0.13,15,�k�k��,6.3,55,,
2018/7/5,10:00:00,15,�k�k��,3.9,10.5,91.8,2,0.16,8,��,8.1,55,,
2018/7/5,11:00:00,15,�k�k��,3.3,10.1,93.4,6,0.09,14,�k��,8.6,28,,
2018/7/5,12:00:00,15,�k�k��,3.1,10.3,93.1,4,0.13,14,�k��,7.1,39,,
2018/7/5,13:00:00,15,�k�k��,3.5,10.4,92.1,2,0.15,15,�k�k��,8.6,44,,
2018/7/5,14:00:00,15,�k�k��,4.3,10.6,91.3,2,0.2,15,�k�k��,9.4,51,,
2018/7/5,15:00:00,15,�k�k��,3.9,10.7,90.9,1,0.16,16,�k,9.5,26,,
2018/7/5,16:00:00,15,�k�k��,3.1,11,92.9,0.5,0.12,16,�k,10,21,,
2018/7/5,17:00:00,15,�k�k��,2.5,11.2,93.5,0.5,0.08,16,�k,6.8,56,,
2018/7/5,18:00:00,16,�k,1.4,11.4,92.3,0.5,0.05,15,�k�k��,5.2,17,,
2018/7/5,19:00:00,1,�k�k��,3.3,10.8,90.4,0.5,0.02,1,�k�k��,5.1,57,,
2018/7/5,20:00:00,15,�k�k��,1.6,10.4,87.6,0,0,16,�k,6.1,7,,
2018/7/5,21:00:00,1,�k�k��,2.8,10.3,86.1,0,0,1,�k�k��,6.6,49,,
2018/7/5,22:00:00,13,���k��,2.3,10.1,86.6,0,0,16,�k,5.3,34,,
2018/7/5,23:00:00,13,���k��,1.8,9.9,86.8,0,0,14,�k��,4,8,,
2018/7/5,0:00:00,16,�k,2.6,10.4,83.1,0,0,15,�k�k��,4.9,59,,
2018/7/6,1:00:00,14,�k��,2,10.2,81.2,0,0,15,�k�k��,5.7,16,,
2018/7/6,2:00:00,16,�k,2.2,10.3,79.2,0,0,16,�k,5.6,42,,
2018/7/6,3:00:00,15,�k�k��,2,10.2,78.2,0,0,16,�k,4.3,40,,
2018/7/6,4:00:00,15,�k�k��,1.5,10.2,78.8,0,0,16,�k,3.9,3,,
2018/7/6,5:00:00,14,�k��,2.6,10.3,78.9,0,0.02,15,�k�k��,4.9,29,,
2018/7/6,6:00:00,15,�k�k��,2.2,10.8,76.2,0,0.11,15,�k�k��,5.8,39,,
2018/7/6,7:00:00,16,�k,2.3,11.3,73.8,0,0.19,16,�k,4.7,26,,
2018/7/6,8:00:00,16,�k,1.8,12.9,69.8,0,0.33,16,�k,3.9,37,,
2018/7/6,9:00:00,1,�k�k��,2,13.9,62.5,0,0.53,16,�k,5.4,53,,
2018/7/6,10:00:00,8,��,1.8,14.9,53.6,0,0.78,3,���k��,3.2,34,,
2018/7/6,11:00:00,5,���쓌,2.6,16.4,59.6,0,0.82,5,���쓌,4.8,21,,
2018/7/6,12:00:00,5,���쓌,3.2,15.3,58.8,0,0.9,7,��쓌,5.1,14,,
2018/7/6,13:00:00,6,�쓌,2.7,14.7,61.1,0,0.82,6,�쓌,5,26,,
2018/7/6,14:00:00,7,��쓌,2.2,14.9,55.8,0,0.71,7,��쓌,4,34,,
2018/7/6,15:00:00,8,��,1.9,15.3,55.9,0,0.5,6,�쓌,3.9,17,,
2018/7/6,16:00:00,8,��,1.8,14.1,60.3,0,0.28,6,�쓌,3.9,13,,
2018/7/6,17:00:00,8,��,0.9,13.6,67,0,0.13,7,��쓌,2.8,25,,
2018/7/6,18:00:00,4,��,0.7,13.7,71.4,0,0.06,8,��,2.5,16,,
2018/7/6,19:00:00,6,�쓌,1,12.3,77.4,0,0.02,5,���쓌,2.5,34,,
2018/7/6,20:00:00,7,��쓌,1.1,11.9,83.2,0,0,8,��,2.4,59,,
2018/7/6,21:00:00,7,��쓌,0.7,11.9,83.6,0,0,7,��쓌,2.2,42,,
2018/7/6,22:00:00,12,��,0.6,11.7,85.4,0,0,7,��쓌,1.5,3,,
2018/7/6,23:00:00,12,��,0.6,11.7,87.3,0,0,11,���쐼,1.3,11,,
2018/7/6,0:00:00,11,���쐼,0.4,11.7,87.9,0,0,12,��,1.5,11,,
2018/7/7,1:00:00,16,�É�,0,11.7,89,0,0,11,���쐼,1.4,44,,
2018/7/7,2:00:00,16,�É�,0,11.4,89.4,0,0,12,��,3.6,25,,
2018/7/7,3:00:00,1,�k�k��,1.5,11.2,91.2,0,0,2,�k��,2.6,56,,
2018/7/7,4:00:00,3,���k��,1.9,10.9,93.7,0,0,3,���k��,3.7,24,,
2018/7/7,5:00:00,3,���k��,1.8,10.9,95.2,1.5,0.01,4,��,3.5,55,,
2018/7/7,6:00:00,3,���k��,2.2,10.9,95.4,1,0.02,3,���k��,3.7,33,,
2018/7/7,7:00:00,3,���k��,2,10.7,94.9,1,0.05,3,���k��,4.4,4,,
2018/7/7,8:00:00,3,���k��,2.6,10.8,95,1,0.07,3,���k��,4.7,34,,
2018/7/7,9:00:00,5,���쓌,2.5,11.2,94.9,0.5,0.06,5,���쓌,3.8,51,,
2018/7/7,10:00:00,5,���쓌,3,11.1,93.7,1,0.08,5,���쓌,4.7,43,,
2018/7/7,11:00:00,4,��,3.7,11,93.7,0.5,0.11,5,���쓌,5.1,54,,
2018/7/7,12:00:00,4,��,3.4,11.2,94.5,1.5,0.12,4,��,5,58,,
2018/7/7,13:00:00,4,��,3.3,10.9,93.1,2,0.2,4,��,6,25,,
2018/7/7,14:00:00,3,���k��,3.4,10.6,93.1,2,0.12,4,��,5.5,3,,
2018/7/7,15:00:00,2,�k��,1.5,10.5,93.1,3,0.14,3,���k��,4.7,11,,
2018/7/7,16:00:00,3,���k��,2.5,10.4,94.1,4.5,0.07,3,���k��,4,54,,
2018/7/7,17:00:00,2,�k��,1.7,10.4,94.5,1.5,0.06,3,���k��,3.9,29,,
2018/7/7,18:00:00,2,�k��,2,10.2,94.7,3,0.02,2,�k��,4.5,36,,
2018/7/7,19:00:00,2,�k��,1.6,9.9,95.2,4,0.01,2,�k��,3.7,44,,
2018/7/7,20:00:00,1,�k�k��,1.7,9.7,95.8,4.5,0,1,�k�k��,3.1,23,,
2018/7/7,21:00:00,16,�k,1.6,9.7,96,4,0,1,�k�k��,2.7,10,,
2018/7/7,22:00:00,1,�k�k��,2,9.6,95.8,3,0,1,�k�k��,3.3,57,,
2018/7/7,23:00:00,16,�k,1.4,9.6,95.8,1.5,0,1,�k�k��,3.8,24,,
2018/7/7,0:00:00,16,�k,1.3,9.6,95.6,0.5,0,16,�k,2.7,59,,
2018/7/8,1:00:00,15,�k�k��,1.4,9.6,95.3,0.5,0,16,�k,2.8,52,,
2018/7/8,2:00:00,1,�k�k��,1.8,9.5,94.7,0,0,1,�k�k��,3.5,49,,
2018/7/8,3:00:00,14,�k��,1.2,9.7,94.4,0.5,0,15,�k�k��,2.5,37,,
2018/7/8,4:00:00,15,�k�k��,0.9,9.7,93.6,0,0,15,�k�k��,2.5,29,,
2018/7/8,5:00:00,16,�k,0.6,10,93.6,0,0.02,16,�k,2.2,13,,
2018/7/8,6:00:00,14,�k��,0.8,10.5,93.7,0,0.07,13,���k��,2.5,16,,
2018/7/8,7:00:00,15,�k�k��,1.4,11.4,86.5,0,0.17,5,���쓌,12.5,46,,
2018/7/8,8:00:00,1,�k�k��,1.5,12.6,81.4,0,0.24,14,�k��,2.7,44,,
2018/7/8,9:00:00,15,�k�k��,0.8,13.2,74.1,0,0.42,1,�k�k��,3.3,33,,
2018/7/8,10:00:00,5,���쓌,2.6,13.3,74.9,0,0.48,4,��,4,17,,
2018/7/8,11:00:00,5,���쓌,2.5,15.1,70.2,0,0.73,5,���쓌,5,53,,
2018/7/8,12:00:00,5,���쓌,3.9,14.7,69.7,0,1.08,6,�쓌,5.6,49,,
2018/7/8,13:00:00,6,�쓌,3.5,14.6,69.8,0,1.03,6,�쓌,5.7,11,,
2018/7/8,14:00:00,6,�쓌,2.2,15.4,72.1,0,0.92,5,���쓌,5.6,14,,
2018/7/8,15:00:00,6,�쓌,2.4,15.6,70.7,0,0.76,5,���쓌,4.1,3,,
2018/7/8,16:00:00,6,�쓌,2.7,14.9,69.4,0,0.62,7,��쓌,4.4,44,,
2018/7/8,17:00:00,7,��쓌,2.4,14.3,68.5,0,0.42,7,��쓌,3.9,7,,
2018/7/8,18:00:00,8,��,2,13.4,72.1,0,0.26,7,��쓌,4.1,46,,
2018/7/8,19:00:00,9,��쐼,0.4,12.3,80.5,0,0.07,8,��,3.1,24,,
2018/7/8,20:00:00,16,�É�,0.2,12.6,88.5,0,0,10,�쐼,1,47,,
2018/7/8,21:00:00,16,�É�,0.1,12.6,89.3,0,0,16,�k,0.7,31,,
2018/7/8,22:00:00,16,�É�,0,12.4,89.4,0,0,2,�k��,1.6,33,,
2018/7/8,23:00:00,16,�k,0.6,12.2,91.9,0,0,16,�k,1.1,59,,
2018/7/8,0:00:00,16,�k,0.4,12.4,91.2,0,0,2,�k��,1.6,37,,
2018/7/9,1:00:00,15,�k�k��,0.8,12.7,91.4,0,0,2,�k��,1.7,59,,
2018/7/9,2:00:00,1,�k�k��,0.5,12.9,90.9,0,0,2,�k��,1.7,0,,
2018/7/9,3:00:00,1,�k�k��,1,12.7,90.1,0,0,1,�k�k��,2.1,41,,
2018/7/9,4:00:00,2,�k��,0.4,12.6,91.6,0,0,2,�k��,1.5,4,,
2018/7/9,5:00:00,16,�k,0.7,12.5,92.5,0,0.01,2,�k��,1.4,38,,
2018/7/9,6:00:00,1,�k�k��,0.5,13.1,93.2,0,0.04,1,�k�k��,2,7,,
2018/7/9,7:00:00,16,�k,0.7,13.5,88.7,0,0.1,16,�k,1.8,56,,
2018/7/9,8:00:00,1,�k�k��,1.5,14.4,79.8,0,0.28,1,�k�k��,2.5,50,,
2018/7/9,9:00:00,4,��,2.8,14.7,83.1,0,0.28,4,��,4.3,54,,
2018/7/9,10:00:00,4,��,3,14.9,78.3,0,0.51,5,���쓌,4.8,23,,
2018/7/9,11:00:00,4,��,3,15.5,77.7,0,0.47,4,��,4.9,17,,
2018/7/9,12:00:00,4,��,2.8,16.2,74.9,0,0.64,5,���쓌,4.7,32,,
2018/7/9,13:00:00,4,��,2.5,14.7,77.5,0,0.42,5,���쓌,4.4,14,,
2018/7/9,14:00:00,4,��,1.9,13.5,84,0.5,0.2,4,��,4.2,41,,
2018/7/9,15:00:00,9,��쐼,1.1,12.7,91.6,7.5,0.04,4,��,3.3,8,,
2018/7/9,16:00:00,16,�É�,0.1,13,94,10,0.05,5,���쓌,3.5,9,,
2018/7/9,17:00:00,15,�k�k��,1,13.5,94.1,1.5,0.05,2,�k��,2.5,34,,
2018/7/9,18:00:00,7,��쓌,0.3,13.6,93.9,0.5,0.03,3,���k��,1.9,5,,
2018/7/9,19:00:00,5,���쓌,1,13.2,93.1,0,0.01,6,�쓌,1.9,40,,
2018/7/9,20:00:00,5,���쓌,0.8,13.2,93.8,0,0,6,�쓌,1.7,0,,
2018/7/9,21:00:00,1,�k�k��,0.4,13.3,94.5,0.5,0,1,�k�k��,0.9,59,,
2018/7/9,22:00:00,15,�k�k��,0.5,13.3,94.6,0,0,3,���k��,1.3,26,,
2018/7/9,23:00:00,3,���k��,0.8,13.1,94.5,0,0,3,���k��,1.2,54,,
2018/7/9,0:00:00,16,�É�,0,13,94.8,0,0,2,�k��,0.9,48,,
2018/7/10,1:00:00,16,�k,0.7,12.9,94.8,0,0,6,�쓌,1.6,3,,
2018/7/10,2:00:00,16,�k,0.3,12.6,94.9,0,0,1,�k�k��,1.3,1,,
2018/7/10,3:00:00,12.4,��,95.2,0,0,,,,,,,,
2018/7/10,4:00:00,16,�É�,0.2,12.4,95.2,0,0,9,��쐼,2.5,12,,
2018/7/10,5:00:00,10,�쐼,0.5,13.2,95.9,0,0.06,11,���쐼,2.5,27,,
2018/7/10,6:00:00,5,���쓌,0.5,13.6,92,0,0.08,7,��쓌,7.4,15,,
2018/7/10,7:00:00,7,��쓌,0.4,13.9,90.9,0,0.1,9,��쐼,1.6,57,,
2018/7/10,8:00:00,4,��,0.9,16.4,77.1,0,0.37,6,�쓌,2.4,57,,
2018/7/10,9:00:00,6,�쓌,1.9,16.5,70.9,0,0.75,5,���쓌,3.6,24,,
2018/7/10,10:00:00,6,�쓌,2.4,17.2,70.3,0,0.87,5,���쓌,4.7,51,,
2018/7/10,11:00:00,6,�쓌,2.2,15.8,73.5,0,0.67,5,���쓌,3.6,35,,
2018/7/10,12:00:00,7,��쓌,2.8,15.2,76.3,0,0.54,6,�쓌,4.9,54,,
2018/7/10,13:00:00,7,��쓌,2.2,16.1,76.6,0,0.48,6,�쓌,3.8,3,,
2018/7/10,14:00:00,7,��쓌,2,15.6,81.9,0,0.29,9,��쐼,3.7,2,,
2018/7/10,15:00:00,5,���쓌,2.7,14.9,82.1,0,0.26,5,���쓌,3.6,53,,
2018/7/10,16:00:00,5,���쓌,1.6,14.6,87.1,0,0.14,6,�쓌,3.3,0,,
2018/7/10,17:00:00,6,�쓌,1,14.5,89.7,0.5,0.09,6,�쓌,2.4,14,,
2018/7/10,18:00:00,6,�쓌,1.2,14.1,91,1,0.05,5,���쓌,2.4,23,,
2018/7/10,19:00:00,6,�쓌,0.4,14,92.7,0,0.01,6,�쓌,1.9,6,,
2018/7/10,20:00:00,16,�É�,0,13.9,93.5,0.5,0,4,��,2.4,26,,
2018/7/10,21:00:00,16,�É�,0.2,13.9,94.2,0.5,0,11,���쐼,0.7,57,,
2018/7/10,22:00:00,16,�É�,0.2,13.8,94.3,1,0,3,���k��,2.5,41,,
2018/7/10,23:00:00,4,��,2.3,13.7,95.1,4,0,4,��,3.2,59,,
2018/7/10,0:00:00,3,���k��,1.1,13.6,95.7,1,0,4,��,3.6,0,,
2018/7/11,1:00:00,4,��,1.8,13.6,95.8,2,0,4,��,4.1,28,,
2018/7/11,2:00:00,4,��,1.2,13.3,95.9,2.5,0,4,��,4,5,,
2018/7/11,3:00:00,3,���k��,1.6,13.3,96,2.5,0,3,���k��,2.8,51,,
2018/7/11,4:00:00,2,�k��,0.9,13.2,96.2,1,0,3,���k��,2.2,12,,
2018/7/11,5:00:00,1,�k�k��,2.2,13.1,96.2,0,0.01,1,�k�k��,3.6,58,,
2018/7/11,6:00:00,2,�k��,2.7,12.7,95.7,0,0.03,1,�k�k��,4.7,50,,
2018/7/11,7:00:00,1,�k�k��,1.8,12.9,95.7,0,0.04,1,�k�k��,4.6,17,,
2018/7/11,8:00:00,2,�k��,1.9,13.5,93.5,0,0.12,1,�k�k��,3.7,17,,
2018/7/11,9:00:00,14,�k��,1.1,14.6,88.6,0.5,0.21,1,�k�k��,2.3,10,,
2018/7/11,10:00:00,14,�k��,2.4,16.4,81.5,0,0.4,15,�k�k��,4,49,,
2018/7/11,11:00:00,15,�k�k��,2.5,18.4,74.7,0,0.69,14,�k��,6.1,36,,
2018/7/11,12:00:00,3,���k��,1.5,19,74.5,0,0.63,16,�k,4.4,13,,
2018/7/11,13:00:00,6,�쓌,2.5,18.7,74.1,0,1.03,5,���쓌,5.1,13,,
2018/7/11,14:00:00,8,��,3.2,16.9,75.8,0,0.92,7,��쓌,5.9,49,,
2018/7/11,15:00:00,8,��,3.6,17,77.9,0,0.78,6,�쓌,6,50,,
2018/7/11,16:00:00,6,�쓌,2.5,17.8,77,0,0.62,8,��,6,16,,
2018/7/11,17:00:00,5,���쓌,3.6,16.1,79,0,0.44,5,���쓌,4.7,55,,
2018/7/11,18:00:00,6,�쓌,1.5,15,88.3,0,0.13,4,��,5,21,,
2018/7/11,19:00:00,5,���쓌,1.2,14.3,86,0,0.06,5,���쓌,3,34,,
2018/7/11,20:00:00,16,�É�,0.1,14.1,91.4,0,0,9,��쐼,1.9,0,,
2018/7/11,21:00:00,10,�쐼,0.5,14.1,92.7,0,0,12,��,0.9,50,,
2018/7/11,22:00:00,16,�É�,0.2,14.3,93.7,0,0,9,��쐼,1.1,42,,
2018/7/11,23:00:00,8,��,0.3,14.3,94.1,0,0,8,��,0.9,45,,
2018/7/11,0:00:00,16,�É�,0.2,14.3,94.1,0,0,9,��쐼,1.6,7,,
2018/7/12,1:00:00,8,��,0.9,14.2,93.4,0,0,8,��,7.1,7,,
2018/7/12,2:00:00,16,�É�,0,14.2,93.6,0,0,7,��쓌,1.9,6,,
2018/7/12,3:00:00,16,�É�,0.1,14.2,93.6,0,0,8,��,1.5,30,,
2018/7/12,4:00:00,9,��쐼,0.3,14.2,92.3,0,0,7,��쓌,1.6,33,,
2018/7/12,5:00:00,8,��,0.7,14.4,92.2,0,0.02,7,��쓌,1.7,55,,
2018/7/12,6:00:00,9,��쐼,1.1,14.8,89.2,0,0.07,8,��,2,48,,
2018/7/12,7:00:00,8,��,1.7,14.8,88,0,0.14,8,��,3.2,18,,
2018/7/12,8:00:00,7,��쓌,1.6,15.7,86.9,0,0.24,8,��,3,11,,
2018/7/12,9:00:00,6,�쓌,2.5,16.3,78,0,0.46,6,�쓌,3.7,40,,
2018/7/12,10:00:00,7,��쓌,2.1,15.8,81.8,0,0.41,7,��쓌,4.4,16,,
2018/7/12,11:00:00,7,��쓌,2.4,15.7,83.4,0,0.46,8,��,4,51,,
2018/7/12,12:00:00,6,�쓌,1.9,16.1,80.6,0,0.46,7,��쓌,3.6,27,,
2018/7/12,13:00:00,6,�쓌,1.9,16.5,72.7,0,0.57,6,�쓌,3.7,32,,
2018/7/12,14:00:00,5,���쓌,2.2,16,80.2,0,0.36,4,��,4.6,39,,
2018/7/12,15:00:00,3,���k��,1.5,16.5,81.9,0,0.26,5,���쓌,4,5,,
2018/7/12,16:00:00,4,��,1.7,16.4,77.8,0,0.3,4,��,3.2,57,,
2018/7/12,17:00:00,3,���k��,2.4,15.5,84.5,0,0.18,4,��,3.9,43,,
2018/7/12,18:00:00,3,���k��,2.4,15,89.6,0,0.07,4,��,4.6,21,,
2018/7/12,19:00:00,3,���k��,2.6,14.5,92.7,0,0.02,3,���k��,4.6,14,,
2018/7/12,20:00:00,3,���k��,0.9,14.2,94.3,0,0,2,�k��,5.5,17,,
2018/7/12,21:00:00,1,�k�k��,1.8,14.1,95.2,0,0,2,�k��,4.3,44,,
2018/7/12,22:00:00,14,�k��,95.9,0,0,,,,,,,,
2018/7/12,23:00:00,3,���k��,0.8,14,95.9,0,0,2,�k��,3.2,9,,
2018/7/12,0:00:00,2,�k��,0.5,13.9,95.7,0,0,3,���k��,2.9,34,,
2018/7/13,1:00:00,3,���k��,1.4,13.9,95.5,0,0,3,���k��,2,58,,
2018/7/13,2:00:00,5,���쓌,0.5,13.8,95.5,0,0,3,���k��,1.7,5,,
2018/7/13,3:00:00,16,�É�,0.1,13.7,95.7,0,0,4,��,1.3,4,,
2018/7/13,4:00:00,16,�É�,0,13.9,95.9,0,0,8,��,1,36,,
2018/7/13,5:00:00,4,��,0.3,14.2,96,0,0.02,1,�k�k��,1.5,20,,
2018/7/13,6:00:00,16,�É�,0.2,14.9,94.8,0,0.08,4,��,1.3,6,,
2018/7/13,7:00:00,5,���쓌,1.1,15,86.7,0,0.14,6,�쓌,2.5,35,,
2018/7/13,8:00:00,3,���k��,1.3,16.7,84.6,0,0.21,3,���k��,1.9,56,,
2018/7/13,9:00:00,5,���쓌,0.8,17.5,82.7,0,0.31,4,��,2.3,17,,
2018/7/13,10:00:00,5,���쓌,2.1,15.5,84.7,0,0.28,6,�쓌,3.7,33,,
2018/7/13,11:00:00,1,�k�k��,0.7,17.1,88.7,0,0.29,4,��,2.5,4,,
2018/7/13,12:00:00,4,��,1.8,18.1,84.8,0,0.42,4,��,3.3,42,,
2018/7/13,13:00:00,6,�쓌,1.5,17.2,81.7,0,0.39,7,��쓌,3.1,37,,
2018/7/13,14:00:00,6,�쓌,1.5,17.3,79.6,0,0.3,4,��,2.9,18,,
2018/7/13,15:00:00,7,��쓌,1.1,17.5,77.4,0,0.28,7,��쓌,2.2,56,,
2018/7/13,16:00:00,7,��쓌,1.3,18,76.4,0,0.3,6,�쓌,2.2,48,,
2018/7/13,17:00:00,7,��쓌,1.3,17.2,80.7,0,0.16,6,�쓌,2.5,42,,
2018/7/13,18:00:00,8,��,1.1,16.7,85.8,0,0.07,7,��쓌,2.6,34,,
2018/7/13,19:00:00,11,���쐼,1,16.5,88.2,0,0.02,9,��쐼,1.9,19,,
2018/7/13,20:00:00,11,���쐼,0.5,15.8,90.2,0,0,12,��,1.9,8,,
2018/7/13,21:00:00,16,�É�,0,15.8,92.6,0,0,12,��,0.8,49,,
2018/7/13,22:00:00,5,���쓌,0.5,15.7,92.7,0,0,6,�쓌,1.5,59,,
2018/7/13,23:00:00,16,�É�,0,15.4,92.8,0,0,7,��쓌,1.5,0,,
2018/7/13,0:00:00,12,��,0.7,15.9,93.2,0,0,12,��,1.3,16,,
2018/7/14,1:00:00,16,�É�,0.1,15.5,93.5,0,0,12,��,1.2,4,,
2018/7/14,2:00:00,8,��,0.7,15.8,93.6,0,0,9,��쐼,1.9,57,,
2018/7/14,3:00:00,7,��쓌,0.7,15.7,93.3,0,0,8,��,2.1,22,,
2018/7/14,4:00:00,7,��쓌,0.5,15.3,93.2,0,0,8,��,2.9,7,,
2018/7/14,5:00:00,5,���쓌,1.3,15.2,92.7,0,0.02,5,���쓌,2.5,59,,
2018/7/14,6:00:00,16,�É�,0.2,15.2,93.1,0,0.05,5,���쓌,2.4,0,,
2018/7/14,7:00:00,7,��쓌,1.1,15.6,89.7,0,0.09,7,��쓌,1.9,57,,
2018/7/14,8:00:00,7,��쓌,1.4,15.6,88.2,0,0.16,7,��쓌,2.6,28,,
2018/7/14,9:00:00,5,���쓌,1.3,16.5,84.3,0,0.26,5,���쓌,2.5,49,,
2018/7/14,10:00:00,5,���쓌,2.8,17.4,80.6,0,0.5,4,��,4.3,32,,
2018/7/14,11:00:00,6,�쓌,2.3,18.2,73.5,0,0.75,5,���쓌,4.5,20,,
2018/7/14,12:00:00,6,�쓌,3.1,18.3,70.5,0,0.87,5,���쓌,4.9,23,,
2018/7/14,13:00:00,7,��쓌,2.6,17.9,73.1,0.5,0.87,6,�쓌,5.9,34,,
2018/7/14,14:00:00,6,�쓌,2.8,17.6,72.5,0,0.81,6,�쓌,4.9,8,,
2018/7/14,15:00:00,6,�쓌,2.7,17.2,72.4,0,0.7,5,���쓌,4.4,53,,
2018/7/14,16:00:00,6,�쓌,2.3,17.5,74.6,0,0.49,5,���쓌,4.5,1,,
2018/7/14,17:00:00,6,�쓌,1.8,16.6,78.5,0,0.27,5,���쓌,3.3,35,,
2018/7/14,18:00:00,5,���쓌,1.7,15.9,84.1,0,0.07,6,�쓌,2.6,54,,
2018/7/14,19:00:00,4,��,1.4,15.7,87.2,0,0.02,7,��쓌,2.5,14,,
2018/7/14,20:00:00,4,��,1.7,15.4,89.4,0,0,4,��,2.6,53,,
2018/7/14,21:00:00,5,���쓌,1.4,15.1,91.8,0,0,5,���쓌,2.9,11,,
2018/7/14,22:00:00,5,���쓌,1.2,14.7,93.2,0,0,4,��,2.5,2,,
2018/7/14,23:00:00,6,�쓌,1.1,14.6,94.4,0,0,5,���쓌,2.5,27,,
2018/7/14,0:00:00,6,�쓌,1.4,14.6,95.1,0,0,5,���쓌,2.1,53,,
2018/7/15,1:00:00,6,�쓌,1.4,14.4,95.4,0,0,7,��쓌,2.5,50,,
2018/7/15,2:00:00,6,�쓌,1.6,14.4,95.9,0,0,6,�쓌,3.8,45,,
2018/7/15,3:00:00,7,��쓌,1.6,14.5,96.5,0,0,6,�쓌,3.1,59,,
2018/7/15,4:00:00,8,��,0.6,14.7,96.7,0,0,6,�쓌,2.5,1,,
2018/7/15,5:00:00,6,�쓌,1.2,14.7,96.5,0,0.01,6,�쓌,2.2,49,,
2018/7/15,6:00:00,5,���쓌,2,15,96.2,0.5,0.03,5,���쓌,3.2,53,,
2018/7/15,7:00:00,6,�쓌,2.2,15,96.1,0.5,0.05,6,�쓌,4.5,32,,
2018/7/15,8:00:00,6,�쓌,2.8,15,96.1,0.5,0.05,6,�쓌,6,59,,
2018/7/15,9:00:00,7,��쓌,2.3,15.2,95.9,0,0.09,7,��쓌,5.2,23,,
2018/7/15,10:00:00,7,��쓌,3.6,15.5,95.5,0,0.1,8,��,8.5,45,,
2018/7/15,11:00:00,8,��,4.8,16.3,95,0,0.2,8,��,9.7,45,,
2018/7/15,12:00:00,9,��쐼,4.5,17,91.2,0,0.29,9,��쐼,9.7,1,,
2018/7/15,13:00:00,9,��쐼,4.9,18.9,90.3,0,0.43,8,��,11,35,,
2018/7/15,14:00:00,8,��,6,18.8,89.6,0,0.53,9,��쐼,12,32,,
2018/7/15,15:00:00,10,�쐼,2.3,17.9,92.9,0,0.16,9,��쐼,11,29,,
2018/7/15,16:00:00,13,���k��,3.2,19.2,86.8,0.5,0.26,13,���k��,4.3,52,,
2018/7/15,17:00:00,9,��쐼,0.7,19.4,82,0,0.21,14,�k��,4.3,4,,
2018/7/15,18:00:00,15,�k�k��,0.8,18.8,85.2,0,0.04,16,�k,2.7,46,,
2018/7/15,19:00:00,5,���쓌,0.4,17.9,88.6,0,0.03,3,���k��,2.2,21,,
2018/7/15,20:00:00,14,�k��,0.3,17.4,90,0,0,15,�k�k��,1.8,36,,
2018/7/15,21:00:00,3,���k��,1.6,16.5,92,0,0,2,�k��,2.5,51,,
2018/7/15,22:00:00,16,�É�,0.1,15.3,92.3,0,0,14,�k��,1.8,31,,
2018/7/15,23:00:00,4,��,0.7,13.8,91.9,0,0,5,���쓌,1.4,54,,
2018/7/15,0:00:00,15,�k�k��,0.8,14.8,94.7,0,0,16,�k,2.3,37,,
2018/7/16,1:00:00,14,�k��,0.9,14.6,95.7,0,0,11,���쐼,3,11,,
2018/7/16,2:00:00,12,��,2,13.8,95.8,0,0,13,���k��,2.5,54,,
2018/7/16,3:00:00,12,��,1.2,12.5,94.5,0,0,13,���k��,2.3,31,,
2018/7/16,4:00:00,13,���k��,0.7,13.5,95.9,0,0,14,�k��,3.1,20,,
2018/7/16,5:00:00,13,���k��,1.8,14,96.6,0,0.03,13,���k��,2.4,50,,
2018/7/16,6:00:00,15,�k�k��,0.4,16.5,95.4,0,0.15,1,�k�k��,1.8,41,,
2018/7/16,7:00:00,1,�k�k��,1.1,20.1,77.6,0,0.35,11,���쐼,2.5,23,,
2018/7/16,8:00:00,2,�k��,2.4,24.7,61.8,0,0.59,3,���k��,3.5,59,,
2018/7/16,9:00:00,4,��,1.8,26.6,62.1,0,0.62,3,���k��,4.1,7,,
2018/7/16,10:00:00,5,���쓌,2.2,26.7,63.8,0,0.89,5,���쓌,3.8,31,,
2018/7/16,11:00:00,7,��쓌,2.3,27.2,60.2,0,0.97,6,�쓌,4.2,37,,
2018/7/16,12:00:00,7,��쓌,2.5,27.6,55,0,1.04,6,�쓌,4.7,22,,
2018/7/16,13:00:00,5,���쓌,2.6,27.3,57.5,0,0.98,5,���쓌,5.5,11,,
2018/7/16,14:00:00,5,���쓌,2.5,26.7,55.7,0,0.87,6,�쓌,4.9,27,,
2018/7/16,15:00:00,7,��쓌,2.8,25.4,56.9,0,0.63,6,�쓌,4.8,52,,
2018/7/16,16:00:00,6,�쓌,1.7,27.3,54.8,0,0.45,6,�쓌,2.6,53,,
2018/7/16,17:00:00,8,��,1.1,27.2,53.4,0,0.36,8,��,3.1,12,,
2018/7/16,18:00:00,6,�쓌,1,23.5,61.6,0,0.18,6,�쓌,3.3,10,,
2018/7/16,19:00:00,16,�É�,0,21.9,75.2,0,0.05,6,�쓌,1.8,2,,
2018/7/16,20:00:00,12,��,0.4,19.6,83.7,0,0,16,�k,1.9,9,,
2018/7/16,21:00:00,14,�k��,1.1,19.5,90.4,0,0,13,���k��,3,27,,
2018/7/16,22:00:00,2,�k��,3.1,17.9,85.2,0,0,3,���k��,5,57,,
2018/7/16,23:00:00,2,�k��,2.5,16,89.2,0,0,2,�k��,6.4,7,,
2018/7/16,0:00:00,2,�k��,1.6,15.6,90.4,0,0,2,�k��,3.1,5,,
2018/7/17,1:00:00,1,�k�k��,1.5,14.8,90.3,0,0,1,�k�k��,2.5,33,,
2018/7/17,2:00:00,14,�k��,0.5,13.9,91.2,0,0,16,�k,1.9,30,,
2018/7/17,3:00:00,16,�k,0.6,13.4,91.3,0,0,14,�k��,1.3,30,,
2018/7/17,4:00:00,14,�k��,0.7,13.1,92.6,0,0,2,�k��,1.4,24,,
2018/7/17,5:00:00,14,�k��,0.3,14.9,95.5,0,0.05,15,�k�k��,1.5,12,,
2018/7/17,6:00:00,2,�k��,1.8,17.1,82,0,0.17,2,�k��,3.2,59,,
2018/7/17,7:00:00,5,���쓌,1.3,18.2,80.4,0,0.23,3,���k��,3.4,2,,
2018/7/17,8:00:00,5,���쓌,2.9,19,64.9,0,0.53,5,���쓌,4,55,,
2018/7/17,9:00:00,5,���쓌,2.9,18.6,65.4,0,0.79,5,���쓌,4.8,51,,